| time (UTC) | temp F | wind direction | speed MPH | gust MPH | rain 1hr in | rain 24hr in | rain mn in | humidity % | barometer mb |
| 20260506044729 | 55 | 248 | 0.0 | 0.0 | 0.00 | 0.00 | 0.00 | 86 | 1017.0 |
| 20260506044237 | 55 | 248 | 0.0 | 0.0 | 0.00 | 0.00 | 0.00 | 86 | 1017.0 |
| 20260506043804 | 55 | 248 | 0.0 | 0.0 | 0.00 | 0.00 | 0.00 | 85 | 1017.1 |
| 20260506043241 | 56 | 248 | 0.0 | 0.0 | 0.00 | 0.00 | 0.00 | 85 | 1017.1 |
| 20260506042728 | 56 | 248 | 0.0 | 0.0 | 0.00 | 0.00 | 0.00 | 84 | 1017.0 |
| 20260506042236 | 56 | 248 | 0.0 | 0.0 | 0.00 | 0.00 | 0.00 | 84 | 1017.1 |
| 20260506041728 | 56 | 248 | 0.0 | 0.0 | 0.00 | 0.00 | 0.00 | 83 | 1017.0 |
| 20260506041256 | 57 | 248 | 0.0 | 0.0 | 0.00 | 0.00 | 0.00 | 83 | 1017.0 |
| 20260506040733 | 57 | 248 | 0.0 | 0.0 | 0.00 | 0.00 | 0.00 | 82 | 1016.8 |
| 20260506040241 | 57 | 248 | 0.0 | 0.0 | 0.00 | 0.00 | 0.00 | 82 | 1016.8 |
| 20260506035728 | 57 | 248 | 0.0 | 0.0 | 0.00 | 0.00 | 0.00 | 82 | 1016.8 |
| 20260506035236 | 58 | 248 | 0.0 | 0.0 | 0.00 | 0.00 | 0.00 | 81 | 1016.7 |
| 20260506034724 | 58 | 248 | 0.0 | 0.0 | 0.00 | 0.00 | 0.00 | 81 | 1016.6 |
| 20260506034232 | 58 | 248 | 0.0 | 0.0 | 0.00 | 0.00 | 0.00 | 80 | 1016.5 |
| 20260506033740 | 58 | 248 | 0.0 | 0.0 | 0.00 | 0.00 | 0.00 | 80 | 1016.4 |
| 20260506033228 | 59 | 248 | 0.0 | 0.0 | 0.00 | 0.00 | 0.00 | 79 | 1016.4 |
| 20260506032735 | 59 | 248 | 0.0 | 0.0 | 0.00 | 0.00 | 0.00 | 79 | 1016.4 |
| 20260506032226 | 59 | 248 | 0.0 | 0.0 | 0.00 | 0.00 | 0.00 | 77 | 1016.4 |
| 20260506031754 | 60 | 248 | 0.0 | 0.0 | 0.00 | 0.00 | 0.00 | 77 | 1016.5 |
| 20260506031230 | 60 | 248 | 0.0 | 0.0 | 0.00 | 0.00 | 0.00 | 76 | 1016.4 |
| 20260506030738 | 60 | 248 | 0.0 | 2.0 | 0.00 | 0.00 | 0.00 | 76 | 1016.4 |
| 20260506030226 | 60 | 248 | 0.0 | 2.0 | 0.00 | 0.00 | 0.00 | 75 | 1016.3 |
| 20260506025752 | 61 | 248 | 0.0 | 1.0 | 0.00 | 0.00 | 0.00 | 74 | 1016.2 |
| 20260506025229 | 61 | 248 | 0.0 | 2.0 | 0.00 | 0.00 | 0.00 | 74 | 1016.3 |
| 20260506024737 | 61 | 186 | 0.0 | 2.0 | 0.00 | 0.00 | 0.00 | 72 | 1016.3 |
| 20260506024225 | 62 | 186 | 0.0 | 2.0 | 0.00 | 0.00 | 0.00 | 72 | 1016.1 |
| 20260506023753 | 62 | 227 | 0.0 | 2.0 | 0.00 | 0.00 | 0.00 | 71 | 1016.3 |
| 20260506023309 | 63 | 227 | 0.0 | 2.0 | 0.00 | 0.00 | 0.00 | 70 | 1016.4 |
| 20260506023237 | 63 | 227 | 0.0 | 2.0 | 0.00 | 0.00 | 0.00 | 70 | 1016.4 |
| 20260506022724 | 63 | 227 | 0.0 | 2.0 | 0.00 | 0.00 | 0.00 | 69 | 1016.4 |
| 20260506022232 | 64 | 227 | 0.0 | 2.0 | 0.00 | 0.00 | 0.00 | 68 | 1016.5 |
| 20260506021724 | 64 | 303 | 0.0 | 2.0 | 0.00 | 0.00 | 0.00 | 67 | 1016.4 |
| 20260506021308 | 64 | 160 | 0.0 | 2.0 | 0.00 | 0.00 | 0.00 | 68 | 1016.4 |
| 20260506021236 | 64 | 160 | 0.0 | 2.0 | 0.00 | 0.00 | 0.00 | 68 | 1016.4 |
| 20260506020728 | 65 | 209 | 0.0 | 2.0 | 0.00 | 0.00 | 0.00 | 67 | 1016.4 |
| 20260506020236 | 65 | 295 | 0.0 | 4.0 | 0.00 | 0.00 | 0.00 | 67 | 1016.4 |
| 20260506015723 | 65 | 295 | 0.0 | 4.0 | 0.00 | 0.00 | 0.00 | 66 | 1016.3 |
| 20260506015310 | 65 | 355 | 0.0 | 0.0 | 0.00 | 0.00 | 0.00 | 65 | 1016.2 |
| 20260506014727 | 65 | 252 | 0.0 | 2.0 | 0.00 | 0.00 | 0.00 | 66 | 1016.2 |
| 20260506014235 | 65 | 239 | 0.0 | 4.0 | 0.00 | 0.00 | 0.00 | 66 | 1016.2 |
| 20260506013723 | 65 | 327 | 1.0 | 4.0 | 0.00 | 0.00 | 0.00 | 65 | 1016.3 |
| 20260506013231 | 65 | 320 | 1.0 | 6.0 | 0.00 | 0.00 | 0.00 | 64 | 1016.3 |
| 20260506012738 | 66 | 313 | 1.0 | 3.0 | 0.00 | 0.00 | 0.00 | 64 | 1016.3 |
| 20260506012226 | 66 | 218 | 0.0 | 3.0 | 0.00 | 0.00 | 0.00 | 63 | 1016.3 |
| 20260506011738 | 66 | 217 | 1.0 | 3.0 | 0.00 | 0.00 | 0.00 | 63 | 1016.3 |
| 20260506011226 | 66 | 208 | 1.0 | 3.0 | 0.00 | 0.00 | 0.00 | 63 | 1016.3 |
| 20260506010734 | 67 | 289 | 0.0 | 2.0 | 0.00 | 0.00 | 0.00 | 63 | 1016.4 |
| 20260506010222 | 66 | 240 | 1.0 | 2.0 | 0.00 | 0.00 | 0.00 | 63 | 1016.4 |
| 20260506005729 | 66 | 107 | 0.0 | 2.0 | 0.00 | 0.00 | 0.00 | 64 | 1016.4 |
| 20260506005256 | 65 | 355 | 1.0 | 4.0 | 0.00 | 0.00 | 0.00 | 64 | 1016.4 |
| 20260506005225 | 65 | 355 | 1.0 | 4.0 | 0.00 | 0.00 | 0.00 | 64 | 1016.4 |
| 20260506004733 | 66 | 187 | 1.0 | 2.0 | 0.00 | 0.00 | 0.00 | 65 | 1016.4 |
| 20260506004301 | 66 | 163 | 1.0 | 3.0 | 0.00 | 0.00 | 0.00 | 65 | 1016.4 |
| 20260506003738 | 65 | 284 | 1.0 | 3.0 | 0.00 | 0.00 | 0.00 | 65 | 1016.5 |
| 20260506003226 | 65 | 207 | 1.0 | 3.0 | 0.00 | 0.00 | 0.00 | 64 | 1016.6 |
| 20260506002733 | 65 | 273 | 1.0 | 3.0 | 0.00 | 0.00 | 0.00 | 65 | 1016.6 |
| 20260506002301 | 64 | 256 | 0.0 | 6.0 | 0.00 | 0.00 | 0.00 | 66 | 1016.5 |
| 20260506002229 | 64 | 256 | 0.0 | 6.0 | 0.00 | 0.00 | 0.00 | 66 | 1016.5 |
| 20260506001721 | 64 | 288 | 2.0 | 6.0 | 0.00 | 0.00 | 0.00 | 67 | 1016.5 |
| 20260506001229 | 64 | 278 | 2.0 | 4.0 | 0.00 | 0.00 | 0.00 | 68 | 1016.5 |
| 20260506000737 | 64 | 217 | 1.0 | 7.0 | 0.00 | 0.00 | 0.00 | 67 | 1016.5 |
| 20260506000305 | 64 | 258 | 4.0 | 7.0 | 0.00 | 0.00 | 0.00 | 66 | 1016.7 |
| 20260505235740 | 65 | 284 | 1.0 | 4.0 | 0.00 | 0.00 | 0.00 | 66 | 1016.8 |
| 20260505235228 | 65 | 264 | 2.0 | 3.0 | 0.00 | 0.00 | 0.00 | 65 | 1016.8 |
| 20260505234755 | 64 | 85 | 1.0 | 3.0 | 0.00 | 0.00 | 0.00 | 67 | 1016.8 |
| 20260505234231 | 64 | 208 | 1.0 | 6.0 | 0.00 | 0.00 | 0.00 | 68 | 1016.9 |
| 20260505233739 | 63 | 46 | 2.0 | 6.0 | 0.00 | 0.00 | 0.00 | 68 | 1017.2 |
| 20260505233227 | 63 | 141 | 2.0 | 4.0 | 0.00 | 0.00 | 0.00 | 69 | 1017.0 |
| 20260505232754 | 63 | 331 | 1.0 | 3.0 | 0.00 | 0.00 | 0.00 | 69 | 1017.0 |
| 20260505232230 | 63 | 266 | 1.0 | 3.0 | 0.00 | 0.00 | 0.00 | 70 | 1017.0 |
| 20260505231758 | 62 | 301 | 1.0 | 2.0 | 0.00 | 0.00 | 0.00 | 70 | 1016.9 |
| 20260505231255 | 62 | 326 | 0.0 | 3.0 | 0.00 | 0.00 | 0.00 | 70 | 1017.0 |
| 20260505230809 | 62 | 295 | 2.0 | 3.0 | 0.00 | 0.00 | 0.00 | 70 | 1017.0 |
| 20260505230226 | 62 | 325 | 1.0 | 5.0 | 0.00 | 0.00 | 0.00 | 70 | 1017.1 |
| 20260505225733 | 62 | 273 | 2.0 | 6.0 | 0.00 | 0.00 | 0.00 | 71 | 1017.1 |
| 20260505225225 | 61 | 107 | 2.0 | 4.0 | 0.00 | 0.00 | 0.00 | 72 | 1017.1 |
| 20260505224733 | 61 | 258 | 1.0 | 4.0 | 0.00 | 0.00 | 0.00 | 72 | 1017.1 |
| 20260505224221 | 61 | 320 | 3.0 | 4.0 | 0.00 | 0.00 | 0.00 | 72 | 1017.2 |
| 20260505223729 | 61 | 269 | 1.0 | 4.0 | 0.00 | 0.00 | 0.00 | 72 | 1017.2 |
| 20260505223237 | 61 | 296 | 1.0 | 4.0 | 0.00 | 0.00 | 0.00 | 71 | 1017.3 |
| 20260505222804 | 61 | 156 | 2.0 | 5.0 | 0.00 | 0.00 | 0.00 | 73 | 1017.4 |
| 20260505222221 | 61 | 269 | 2.0 | 4.0 | 0.00 | 0.00 | 0.00 | 72 | 1017.4 |
| 20260505221729 | 61 | 185 | 1.0 | 3.0 | 0.00 | 0.00 | 0.00 | 72 | 1017.5 |
| 20260505221257 | 61 | 306 | 1.0 | 2.0 | 0.00 | 0.00 | 0.00 | 73 | 1017.6 |
| 20260505220734 | 60 | 348 | 1.0 | 3.0 | 0.00 | 0.00 | 0.00 | 74 | 1017.5 |
| 20260505220222 | 60 | 328 | 2.0 | 3.0 | 0.00 | 0.00 | 0.00 | 74 | 1017.5 |
| 20260505215733 | 60 | 12 | 2.0 | 4.0 | 0.00 | 0.00 | 0.00 | 74 | 1017.5 |
| 20260505215221 | 60 | 257 | 0.0 | 5.0 | 0.00 | 0.00 | 0.00 | 74 | 1017.5 |
| 20260505214729 | 60 | 288 | 4.0 | 5.0 | 0.00 | 0.00 | 0.00 | 74 | 1017.6 |
| 20260505214226 | 60 | 123 | 0.0 | 4.0 | 0.00 | 0.00 | 0.00 | 74 | 1017.6 |
| 20260505213734 | 60 | 285 | 3.0 | 4.0 | 0.00 | 0.00 | 0.00 | 74 | 1017.5 |
| 20260505213222 | 60 | 19 | 1.0 | 4.0 | 0.00 | 0.00 | 0.00 | 74 | 1017.4 |
| 20260505212729 | 60 | 282 | 2.0 | 4.0 | 0.00 | 0.00 | 0.00 | 74 | 1017.4 |
| 20260505212237 | 59 | 283 | 1.0 | 4.0 | 0.00 | 0.00 | 0.00 | 75 | 1017.5 |
| 20260505211725 | 59 | 308 | 1.0 | 4.0 | 0.00 | 0.00 | 0.00 | 75 | 1017.6 |
| 20260505211253 | 59 | 42 | 2.0 | 4.0 | 0.00 | 0.00 | 0.00 | 75 | 1017.5 |
| 20260505211221 | 59 | 42 | 2.0 | 4.0 | 0.00 | 0.00 | 0.00 | 75 | 1017.5 |
| 20260505210809 | 59 | 263 | 0.0 | 3.0 | 0.00 | 0.00 | 0.00 | 75 | 1017.5 |
| 20260505210226 | 59 | 323 | 0.0 | 4.0 | 0.00 | 0.00 | 0.00 | 76 | 1017.7 |
| 20260505205737 | 59 | 256 | 0.0 | 4.0 | 0.00 | 0.00 | 0.00 | 76 | 1017.7 |
| 20260505205305 | 59 | 279 | 1.0 | 3.0 | 0.00 | 0.00 | 0.00 | 76 | 1017.8 |
| 20260505204801 | 59 | 297 | 1.0 | 3.0 | 0.00 | 0.00 | 0.00 | 75 | 1017.9 |
| 20260505204238 | 59 | 154 | 1.0 | 3.0 | 0.00 | 0.00 | 0.00 | 77 | 1017.8 |
| 20260505203806 | 58 | 348 | 1.0 | 3.0 | 0.00 | 0.00 | 0.00 | 77 | 1017.8 |
| 20260505203222 | 58 | 323 | 1.0 | 6.0 | 0.00 | 0.00 | 0.00 | 77 | 1017.8 |
| 20260505202808 | 58 | 277 | 4.0 | 6.0 | 0.00 | 0.00 | 0.00 | 76 | 1017.9 |
| 20260505202225 | 58 | 151 | 1.0 | 4.0 | 0.00 | 0.00 | 0.00 | 77 | 1017.7 |
| 20260505201733 | 58 | 258 | 1.0 | 4.0 | 0.00 | 0.00 | 0.00 | 77 | 1017.9 |
| 20260505201221 | 58 | 78 | 0.0 | 4.0 | 0.00 | 0.00 | 0.00 | 78 | 1017.8 |
| 20260505200729 | 58 | 260 | 1.0 | 4.0 | 0.00 | 0.00 | 0.00 | 78 | 1017.8 |
| 20260505200237 | 58 | 96 | 0.0 | 4.0 | 0.00 | 0.00 | 0.00 | 78 | 1017.9 |
| 20260505195724 | 57 | 267 | 2.0 | 4.0 | 0.00 | 0.00 | 0.00 | 78 | 1017.9 |
| 20260505195232 | 57 | 293 | 1.0 | 4.0 | 0.00 | 0.00 | 0.00 | 78 | 1017.9 |
| 20260505194723 | 57 | 309 | 2.0 | 3.0 | 0.00 | 0.00 | 0.00 | 78 | 1017.7 |
| 20260505194231 | 58 | 325 | 1.0 | 4.0 | 0.00 | 0.00 | 0.00 | 78 | 1017.8 |
| 20260505193739 | 57 | 278 | 1.0 | 5.0 | 0.00 | 0.00 | 0.00 | 78 | 1017.7 |
| 20260505193227 | 58 | 265 | 1.0 | 4.0 | 0.00 | 0.00 | 0.00 | 78 | 1017.7 |
| 20260505192734 | 57 | 270 | 1.0 | 3.0 | 0.00 | 0.00 | 0.00 | 78 | 1017.8 |
| 20260505192221 | 57 | 315 | 1.0 | 3.0 | 0.00 | 0.00 | 0.00 | 78 | 1017.7 |
| 20260505191728 | 57 | 333 | 0.0 | 3.0 | 0.00 | 0.00 | 0.00 | 78 | 1017.7 |
| 20260505191236 | 57 | 254 | 1.0 | 3.0 | 0.00 | 0.00 | 0.00 | 78 | 1017.7 |
| 20260505190804 | 57 | 263 | 1.0 | 3.0 | 0.00 | 0.00 | 0.00 | 78 | 1017.8 |
| 20260505190240 | 57 | 265 | 1.0 | 3.0 | 0.00 | 0.00 | 0.00 | 78 | 1017.7 |
| 20260505185807 | 58 | 284 | 0.0 | 2.0 | 0.00 | 0.00 | 0.00 | 78 | 1017.7 |
| 20260505185305 | 58 | 320 | 1.0 | 3.0 | 0.00 | 0.00 | 0.00 | 78 | 1017.7 |
| 20260505184724 | 58 | 145 | 1.0 | 3.0 | 0.00 | 0.00 | 0.00 | 78 | 1017.6 |
| 20260505184232 | 58 | 140 | 1.0 | 4.0 | 0.00 | 0.00 | 0.00 | 78 | 1017.7 |
| 20260505183740 | 58 | 170 | 1.0 | 4.0 | 0.00 | 0.00 | 0.00 | 78 | 1017.6 |
| 20260505183227 | 58 | 260 | 1.0 | 4.0 | 0.00 | 0.00 | 0.00 | 78 | 1017.5 |
| 20260505182754 | 58 | 132 | 0.0 | 3.0 | 0.00 | 0.00 | 0.00 | 78 | 1017.6 |
| 20260505182230 | 57 | 114 | 1.0 | 2.0 | 0.00 | 0.00 | 0.00 | 78 | 1017.5 |
| 20260505181738 | 57 | 326 | 1.0 | 2.0 | 0.00 | 0.00 | 0.00 | 78 | 1017.6 |
| 20260505181225 | 57 | 240 | 0.0 | 4.0 | 0.00 | 0.00 | 0.00 | 79 | 1017.6 |
| 20260505180733 | 57 | 141 | 0.0 | 3.0 | 0.00 | 0.00 | 0.00 | 79 | 1017.5 |
| 20260505180240 | 57 | 217 | 1.0 | 3.0 | 0.00 | 0.00 | 0.00 | 79 | 1017.5 |
| 20260505175727 | 57 | 333 | 0.0 | 2.0 | 0.00 | 0.00 | 0.00 | 79 | 1017.4 |
| 20260505175255 | 57 | 63 | 1.0 | 2.0 | 0.00 | 0.00 | 0.00 | 79 | 1017.5 |
| 20260505174735 | 57 | 114 | 0.0 | 3.0 | 0.00 | 0.00 | 0.00 | 79 | 1017.4 |
| 20260505174223 | 57 | 137 | 0.0 | 3.0 | 0.00 | 0.00 | 0.00 | 79 | 1017.4 |
| 20260505173730 | 57 | 133 | 1.0 | 3.0 | 0.00 | 0.00 | 0.00 | 79 | 1017.4 |
| 20260505173258 | 57 | 274 | 1.0 | 4.0 | 0.00 | 0.00 | 0.00 | 80 | 1017.4 |
| 20260505172753 | 57 | 11 | 0.0 | 2.0 | 0.00 | 0.00 | 0.00 | 80 | 1017.3 |
| 20260505172230 | 57 | 323 | 1.0 | 2.0 | 0.00 | 0.00 | 0.00 | 80 | 1017.3 |
| 20260505171738 | 56 | 155 | 0.0 | 2.0 | 0.00 | 0.00 | 0.00 | 80 | 1017.3 |
| 20260505171226 | 56 | 94 | 0.0 | 2.0 | 0.00 | 0.00 | 0.00 | 80 | 1017.3 |
| 20260505170754 | 56 | 94 | 0.0 | 4.0 | 0.00 | 0.00 | 0.00 | 81 | 1017.3 |
| 20260505170310 | 56 | 95 | 1.0 | 4.0 | 0.00 | 0.00 | 0.00 | 80 | 1017.2 |
| 20260505170238 | 56 | 95 | 1.0 | 4.0 | 0.00 | 0.00 | 0.00 | 80 | 1017.2 |
| 20260505165725 | 56 | 76 | 0.0 | 2.0 | 0.00 | 0.00 | 0.00 | 81 | 1017.1 |
| 20260505165253 | 56 | 78 | 0.0 | 2.0 | 0.00 | 0.00 | 0.00 | 81 | 1017.1 |
| 20260505164810 | 56 | 53 | 1.0 | 2.0 | 0.00 | 0.00 | 0.00 | 81 | 1017.2 |
| 20260505164307 | 56 | 190 | 0.0 | 2.0 | 0.00 | 0.00 | 0.00 | 81 | 1017.1 |
| 20260505164235 | 56 | 190 | 0.0 | 2.0 | 0.00 | 0.00 | 0.00 | 81 | 1017.1 |
| 20260505163803 | 56 | 292 | 1.0 | 5.0 | 0.00 | 0.00 | 0.00 | 81 | 1017.1 |
| 20260505163731 | 56 | 292 | 1.0 | 5.0 | 0.00 | 0.00 | 0.00 | 81 | 1017.1 |
| 20260505163259 | 56 | 158 | 2.0 | 5.0 | 0.00 | 0.00 | 0.00 | 81 | 1017.1 |
| 20260505163227 | 56 | 158 | 2.0 | 5.0 | 0.00 | 0.00 | 0.00 | 81 | 1017.1 |
| 20260505162734 | 56 | 97 | 0.0 | 5.0 | 0.00 | 0.00 | 0.00 | 81 | 1017.0 |
| 20260505162222 | 56 | 127 | 1.0 | 5.0 | 0.00 | 0.00 | 0.00 | 81 | 1017.1 |
| 20260505161730 | 56 | 44 | 1.0 | 3.0 | 0.00 | 0.00 | 0.00 | 82 | 1017.1 |
| 20260505161257 | 56 | 56 | 0.0 | 2.0 | 0.00 | 0.00 | 0.00 | 82 | 1017.0 |
| 20260505160729 | 56 | 56 | 1.0 | 2.0 | 0.00 | 0.00 | 0.00 | 82 | 1017.0 |
| 20260505160257 | 55 | 155 | 1.0 | 2.0 | 0.00 | 0.00 | 0.00 | 82 | 1016.9 |
| 20260505160225 | 55 | 155 | 1.0 | 2.0 | 0.00 | 0.00 | 0.00 | 82 | 1016.9 |
| 20260505153304 | 55 | 140 | 0.0 | 2.0 | 0.00 | 0.00 | 0.00 | 83 | 1017.0 |
| 20260505153232 | 55 | 140 | 0.0 | 2.0 | 0.00 | 0.00 | 0.00 | 83 | 1017.0 |
| 20260505152738 | 55 | 57 | 0.0 | 3.0 | 0.00 | 0.00 | 0.00 | 83 | 1017.1 |
| 20260505152226 | 55 | 158 | 0.0 | 3.0 | 0.00 | 0.00 | 0.00 | 83 | 1017.1 |
| 20260505151733 | 55 | 350 | 0.0 | 3.0 | 0.00 | 0.00 | 0.00 | 83 | 1017.0 |
| 20260505151240 | 55 | 247 | 0.0 | 3.0 | 0.00 | 0.00 | 0.00 | 83 | 1016.9 |
| 20260505150728 | 55 | 163 | 0.0 | 2.0 | 0.00 | 0.00 | 0.00 | 83 | 1016.9 |
| 20260505150256 | 55 | 131 | 0.0 | 3.0 | 0.00 | 0.00 | 0.00 | 83 | 1016.9 |
| 20260505140232 | 55 | 56 | 0.0 | 2.0 | 0.00 | 0.00 | 0.00 | 84 | 1016.1 |
| 20260505130228 | 55 | 75 | 0.0 | 2.0 | 0.00 | 0.00 | 0.00 | 84 | 1015.6 |
| 20260505124735 | 55 | 30 | 0.0 | 2.0 | 0.00 | 0.00 | 0.00 | 85 | 1015.5 |
| 20260505124223 | 55 | 311 | 0.0 | 0.0 | 0.00 | 0.00 | 0.00 | 85 | 1015.5 |
| 20260505123810 | 55 | 192 | 0.0 | 0.0 | 0.00 | 0.00 | 0.00 | 84 | 1015.5 |
| 20260505123738 | 55 | 192 | 0.0 | 0.0 | 0.00 | 0.00 | 0.00 | 84 | 1015.5 |
| 20260505123226 | 55 | 82 | 0.0 | 2.0 | 0.00 | 0.00 | 0.00 | 85 | 1015.5 |
| 20260505122753 | 55 | 82 | 0.0 | 2.0 | 0.00 | 0.00 | 0.00 | 85 | 1015.4 |
| 20260505122721 | 55 | 82 | 0.0 | 2.0 | 0.00 | 0.00 | 0.00 | 85 | 1015.4 |
| 20260505122229 | 55 | 124 | 1.0 | 2.0 | 0.00 | 0.00 | 0.00 | 85 | 1015.4 |
| 20260505121732 | 54 | 139 | 0.0 | 3.0 | 0.00 | 0.00 | 0.00 | 85 | 1015.4 |
| 20260505121235 | 54 | 244 | 0.0 | 3.0 | 0.00 | 0.00 | 0.00 | 85 | 1015.5 |
| 20260505120803 | 54 | 134 | 1.0 | 2.0 | 0.00 | 0.00 | 0.00 | 85 | 1015.4 |
| 20260505120239 | 54 | 85 | 0.0 | 1.0 | 0.00 | 0.00 | 0.00 | 85 | 1015.4 |
| 20260505115726 | 54 | 85 | 0.0 | 2.0 | 0.00 | 0.00 | 0.00 | 85 | 1015.4 |
| 20260505115238 | 54 | 85 | 1.0 | 2.0 | 0.00 | 0.00 | 0.00 | 85 | 1015.3 |
| 20260505114726 | 54 | 61 | 0.0 | 3.0 | 0.00 | 0.00 | 0.00 | 85 | 1015.3 |
| 20260505114234 | 54 | 71 | 1.0 | 3.0 | 0.00 | 0.00 | 0.00 | 85 | 1015.4 |
| 20260505113802 | 54 | 219 | 0.0 | 3.0 | 0.00 | 0.00 | 0.00 | 85 | 1015.3 |
| 20260505113730 | 54 | 219 | 0.0 | 3.0 | 0.00 | 0.00 | 0.00 | 85 | 1015.3 |
| 20260505113238 | 54 | 87 | 0.0 | 2.0 | 0.00 | 0.00 | 0.00 | 85 | 1015.3 |
| 20260505112805 | 54 | 104 | 0.0 | 2.0 | 0.00 | 0.00 | 0.00 | 85 | 1015.3 |
| 20260505112733 | 54 | 104 | 0.0 | 2.0 | 0.00 | 0.00 | 0.00 | 85 | 1015.3 |
| 20260505112221 | 54 | 146 | 0.0 | 2.0 | 0.00 | 0.00 | 0.00 | 85 | 1015.3 |
| 20260505111729 | 54 | 57 | 1.0 | 3.0 | 0.00 | 0.00 | 0.00 | 85 | 1015.3 |
| 20260505111257 | 54 | 190 | 1.0 | 3.0 | 0.00 | 0.00 | 0.00 | 85 | 1015.3 |
| 20260505110812 | 54 | 109 | 1.0 | 2.0 | 0.00 | 0.00 | 0.00 | 85 | 1015.2 |
| 20260505110740 | 54 | 109 | 1.0 | 2.0 | 0.00 | 0.00 | 0.00 | 85 | 1015.2 |
| 20260505110228 | 54 | 177 | 0.0 | 3.0 | 0.00 | 0.00 | 0.00 | 85 | 1015.2 |
| 20260505102222 | 54 | 59 | 0.0 | 2.0 | 0.00 | 0.00 | 0.00 | 86 | 1014.9 |
| 20260505101810 | 54 | 171 | 0.0 | 2.0 | 0.00 | 0.00 | 0.00 | 87 | 1014.8 |
| 20260505101305 | 54 | 171 | 0.0 | 2.0 | 0.00 | 0.00 | 0.00 | 87 | 1014.8 |
| 20260505100722 | 54 | 219 | 0.0 | 2.0 | 0.00 | 0.00 | 0.00 | 87 | 1014.7 |
| 20260505100230 | 54 | 174 | 1.0 | 3.0 | 0.00 | 0.00 | 0.00 | 87 | 1014.8 |
| 20260505095757 | 54 | 38 | 0.0 | 2.0 | 0.00 | 0.00 | 0.00 | 87 | 1014.8 |
| 20260505095254 | 54 | 52 | 0.0 | 3.0 | 0.00 | 0.00 | 0.00 | 87 | 1014.8 |
| 20260505094810 | 53 | 16 | 0.0 | 3.0 | 0.00 | 0.00 | 0.00 | 88 | 1014.7 |
| 20260505094738 | 53 | 16 | 0.0 | 3.0 | 0.00 | 0.00 | 0.00 | 88 | 1014.7 |
| 20260505094306 | 53 | 53 | 0.0 | 3.0 | 0.00 | 0.00 | 0.00 | 88 | 1014.8 |
| 20260505093723 | 53 | 71 | 1.0 | 3.0 | 0.00 | 0.00 | 0.00 | 89 | 1014.7 |
| 20260505093311 | 53 | 88 | 0.0 | 2.0 | 0.00 | 0.00 | 0.00 | 89 | 1014.6 |
| 20260505092726 | 52 | 11 | 0.0 | 2.0 | 0.00 | 0.00 | 0.00 | 89 | 1014.7 |
| 20260505092234 | 52 | 24 | 0.0 | 1.0 | 0.00 | 0.00 | 0.00 | 89 | 1014.6 |
| 20260505091801 | 52 | 24 | 0.0 | 0.0 | 0.00 | 0.00 | 0.00 | 89 | 1014.6 |
| 20260505091237 | 52 | 24 | 0.0 | 1.0 | 0.00 | 0.00 | 0.00 | 89 | 1014.6 |
| 20260505090805 | 52 | 24 | 0.0 | 1.0 | 0.00 | 0.00 | 0.00 | 90 | 1014.5 |
| 20260505090301 | 52 | 20 | 0.0 | 0.0 | 0.00 | 0.00 | 0.00 | 90 | 1014.5 |
| 20260505085736 | 52 | 20 | 0.0 | 0.0 | 0.00 | 0.00 | 0.00 | 89 | 1014.4 |
| 20260505085305 | 52 | 20 | 0.0 | 0.0 | 0.00 | 0.00 | 0.00 | 89 | 1014.4 |
| 20260505084725 | 52 | 20 | 0.0 | 0.0 | 0.00 | 0.00 | 0.00 | 89 | 1014.5 |
| 20260505084253 | 52 | 20 | 0.0 | 0.0 | 0.00 | 0.00 | 0.00 | 89 | 1014.4 |
| 20260505084221 | 52 | 20 | 0.0 | 0.0 | 0.00 | 0.00 | 0.00 | 89 | 1014.4 |
| 20260505083729 | 52 | 20 | 0.0 | 0.0 | 0.00 | 0.00 | 0.00 | 88 | 1014.5 |
| 20260505083237 | 52 | 20 | 0.0 | 0.0 | 0.00 | 0.00 | 0.00 | 88 | 1014.4 |
| 20260505082804 | 53 | 20 | 0.0 | 0.0 | 0.00 | 0.00 | 0.00 | 88 | 1014.4 |
| 20260505082732 | 53 | 20 | 0.0 | 0.0 | 0.00 | 0.00 | 0.00 | 88 | 1014.4 |
| 20260505082259 | 53 | 20 | 0.0 | 0.0 | 0.00 | 0.00 | 0.00 | 88 | 1014.4 |
| 20260505081736 | 53 | 20 | 0.0 | 0.0 | 0.00 | 0.00 | 0.00 | 88 | 1014.4 |
| 20260505081224 | 53 | 20 | 0.0 | 1.0 | 0.00 | 0.00 | 0.00 | 88 | 1014.3 |
| 20260505080811 | 53 | 20 | 0.0 | 2.0 | 0.00 | 0.00 | 0.00 | 88 | 1014.3 |
| 20260505080228 | 53 | 20 | 0.0 | 2.0 | 0.00 | 0.00 | 0.00 | 88 | 1014.2 |
| 20260505075735 | 53 | 20 | 0.0 | 0.0 | 0.00 | 0.00 | 0.00 | 87 | 1014.2 |
| 20260505075304 | 53 | 20 | 0.0 | 0.0 | 0.00 | 0.00 | 0.00 | 87 | 1014.2 |
| 20260505075231 | 53 | 20 | 0.0 | 0.0 | 0.00 | 0.00 | 0.00 | 87 | 1014.2 |
| 20260505074738 | 53 | 20 | 0.0 | 2.0 | 0.00 | 0.00 | 0.00 | 87 | 1014.1 |
| 20260505074226 | 54 | 20 | 0.0 | 2.0 | 0.00 | 0.00 | 0.00 | 87 | 1014.1 |
| 20260505073734 | 54 | 20 | 0.0 | 2.0 | 0.00 | 0.00 | 0.00 | 86 | 1014.0 |
| 20260505073226 | 54 | 20 | 0.0 | 1.0 | 0.00 | 0.00 | 0.00 | 86 | 1013.9 |
| 20260505072733 | 54 | 20 | 0.0 | 1.0 | 0.00 | 0.00 | 0.00 | 86 | 1013.8 |
| 20260505072301 | 54 | 261 | 0.0 | 0.0 | 0.00 | 0.00 | 0.00 | 85 | 1013.8 |
| 20260505071738 | 54 | 261 | 0.0 | 0.0 | 0.00 | 0.00 | 0.00 | 85 | 1013.8 |
| 20260505071226 | 54 | 261 | 0.0 | 0.0 | 0.00 | 0.00 | 0.00 | 85 | 1013.7 |
| 20260505070734 | 54 | 261 | 0.0 | 0.0 | 0.00 | 0.00 | 0.00 | 85 | 1013.7 |
| 20260505070222 | 55 | 261 | 0.0 | 0.0 | 0.00 | 0.00 | 0.00 | 84 | 1013.6 |
| 20260505065729 | 55 | 261 | 0.0 | 0.0 | 0.00 | 0.00 | 0.00 | 84 | 1013.5 |
| 20260505065237 | 55 | 261 | 0.0 | 0.0 | 0.00 | 0.00 | 0.00 | 83 | 1013.5 |
| 20260505064725 | 55 | 261 | 0.0 | 0.0 | 0.00 | 0.00 | 0.00 | 83 | 1013.5 |
| 20260505064253 | 55 | 261 | 0.0 | 2.0 | 0.00 | 0.00 | 0.00 | 83 | 1013.5 |
| 20260505063733 | 55 | 261 | 0.0 | 2.0 | 0.00 | 0.00 | 0.00 | 83 | 1013.4 |
| 20260505063241 | 56 | 288 | 0.0 | 2.0 | 0.00 | 0.00 | 0.00 | 82 | 1013.3 |
| 20260505062808 | 56 | 304 | 0.0 | 2.0 | 0.00 | 0.00 | 0.00 | 82 | 1013.4 |
| 20260505062224 | 56 | 304 | 0.0 | 2.0 | 0.00 | 0.00 | 0.00 | 81 | 1013.3 |
| 20260505061731 | 56 | 311 | 0.0 | 2.0 | 0.00 | 0.00 | 0.00 | 81 | 1013.3 |
| 20260505061259 | 56 | 248 | 0.0 | 2.0 | 0.00 | 0.00 | 0.00 | 81 | 1013.1 |
| 20260505060755 | 56 | 247 | 0.0 | 2.0 | 0.00 | 0.00 | 0.00 | 80 | 1013.1 |
| 20260505060312 | 57 | 247 | 0.0 | 3.0 | 0.00 | 0.00 | 0.00 | 80 | 1013.1 |
| 20260505060240 | 57 | 247 | 0.0 | 3.0 | 0.00 | 0.00 | 0.00 | 80 | 1013.1 |
| 20260505055727 | 57 | 215 | 0.0 | 3.0 | 0.00 | 0.00 | 0.00 | 79 | 1013.1 |
| 20260505055235 | 57 | 142 | 0.0 | 3.0 | 0.00 | 0.00 | 0.00 | 79 | 1013.1 |
| 20260505054803 | 57 | 127 | 1.0 | 4.0 | 0.00 | 0.00 | 0.00 | 79 | 1013.1 |
| 20260505054731 | 57 | 127 | 1.0 | 4.0 | 0.00 | 0.00 | 0.00 | 79 | 1013.1 |
| 20260505054239 | 57 | 180 | 1.0 | 3.0 | 0.00 | 0.00 | 0.00 | 78 | 1012.9 |
| 20260505053727 | 58 | 88 | 0.0 | 2.0 | 0.00 | 0.00 | 0.00 | 78 | 1012.9 |
| 20260505053235 | 58 | 195 | 0.0 | 4.0 | 0.00 | 0.00 | 0.00 | 77 | 1012.9 |
| 20260505052722 | 58 | 227 | 1.0 | 4.0 | 0.00 | 0.00 | 0.00 | 76 | 1012.9 |
| 20260505052234 | 59 | 38 | 1.0 | 7.0 | 0.00 | 0.00 | 0.00 | 76 | 1013.0 |
| 20260505051802 | 59 | 282 | 2.0 | 7.0 | 0.00 | 0.00 | 0.00 | 76 | 1013.0 |
| 20260505051258 | 59 | 13 | 1.0 | 3.0 | 0.00 | 0.00 | 0.00 | 75 | 1013.0 |
| 20260505050735 | 60 | 255 | 0.0 | 2.0 | 0.00 | 0.00 | 0.00 | 75 | 1012.9 |
| 20260505050223 | 60 | 193 | 0.0 | 2.0 | 0.00 | 0.00 | 0.00 | 74 | 1012.8 |